This demonstration page uses our WeatherBlox Daily Observations layout. Learn more.

Left ArrowRight Arrow

40.92945, -100.16068

Hourly Observations for April 9, 2015

Temp ( °F °C ) Dew Point ( °F °C ) Humidity (%) Winds ( mph kmh ) Pressure ( in mb ) Visibility ( mi km ) Precip ( " mm )
12:15 am 00:15 Cloudy with Mist and Fog 43 6 42 5.3 95 95 NNE 15 24 29.74 1007 5 8 N/A
12:35 am 00:35 Cloudy with Drizzle 43 6 41 5.1 94 94 NNE 14 22 29.74 1007 4 6 N/A
12:55 am 00:55 Cloudy with Light Rain 42 5.7 41 5 95 95 N 14 22 29.74 1007 4 6 N/A
1:15 am 01:15 Cloudy with Drizzle 42 5.6 41 4.8 95 95 NNE 9 15 29.74 1007 3 5 N/A
1:35 am 01:35 Cloudy with Drizzle 42 5.5 41 4.8 95 95 N 8 13 29.74 1007 4 6 0.01 0.25
1:55 am 01:55 Cloudy with Rain 42 5.5 41 4.8 95 95 NNE 9 15 29.74 1007 4 6 0.01 0.25
2:15 am 02:15 Cloudy with Drizzle 42 5.5 41 4.8 95 95 NNE 8 13 29.74 1007 5 8 0.01 0.25
2:35 am 02:35 Cloudy 42 5.5 41 4.8 95 95 NNE 9 15 29.74 1007 7 11 0.01 0.25
2:55 am 02:55 Cloudy 42 5.5 40 4.7 95 95 N 9 15 29.74 1007 10 16 0.01 0.25
3:15 am 03:15 Cloudy 42 5.5 40 4.6 94 94 N 13 20 29.74 1007 10 16 N/A
3:35 am 03:35 Cloudy with Mist and Fog 42 5.3 40 4.5 95 95 N 14 22 29.74 1007 5 8 N/A
3:55 am 03:55 Cloudy with Drizzle 41 5.2 40 4.5 95 95 N 9 15 29.74 1007 5 8 N/A
4:15 am 04:15 Cloudy with Mist and Fog 41 5.2 40 4.5 95 95 NNW 15 24 29.74 1007 4 6 N/A
4:35 am 04:35 Cloudy with Mist and Fog 41 5 40 4.2 95 95 NNW 17 28 29.74 1007 5 8 N/A
4:55 am 04:55 Cloudy 41 5 39 4 93 93 NNW 14 22 29.74 1007 7 11 N/A
5:15 am 05:15 Cloudy 41 5 39 4 93 93 NNW 14 22 29.74 1007 10 16 N/A
5:35 am 05:35 Cloudy 41 5 39 4 93 93 NNW 13 20 29.77 1008 7 11 N/A
5:55 am 05:55 Cloudy 41 5 39 3.9 93 93 NNW 14 22 29.77 1008 10 16 N/A
6:15 am 06:15 Cloudy with Drizzle 41 4.9 39 3.8 93 93 N 16 26 29.77 1008 5 8 N/A
6:35 am 06:35 Cloudy with Drizzle 41 4.8 39 3.8 93 93 NNW 15 24 29.77 1008 5 8 N/A
6:55 am 06:55 Cloudy with Drizzle 40 4.7 39 3.7 93 93 NNW 15 24 29.80 1009 4 6 0.01 0.25
7:15 am 07:15 Cloudy with Drizzle 40 4.7 39 3.7 93 93 NNW 14 22 29.80 1009 5 8 0.01 0.25
7:35 am 07:35 Cloudy with Light Rain 40 4.7 39 3.9 95 95 NW 12 19 29.80 1009 3 5 0.02 0.51
7:55 am 07:55 Cloudy with Drizzle 40 4.3 38 3.5 95 95 NNW 20 31 29.83 1010 4 6 0.03 0.76
8:15 am 08:15 Cloudy with Drizzle 39 4.1 38 3.2 94 94 NW 17 28 29.85 1011 5 8 0.01 0.25
8:35 am 08:35 Cloudy with Light Rain 39 4 38 3.1 94 94 NW 18 30 29.85 1011 5 8 0.02 0.51
8:55 am 08:55 Cloudy with Light Rain 38 3.5 36 2.4 93 93 NW 22 35 29.88 1012 3 4 0.04 1.02
9:15 am 09:15 Cloudy with Light Rain 37 2.5 35 1.6 94 94 NW 18 30 29.88 1012 3 5 0.01 0.25
9:35 am 09:35 Cloudy with Light Snow 35 1.8 34 1.1 95 95 NW 18 30 29.94 1014 2 3 0.04 1.02
9:55 am 09:55 Cloudy with Light Snow 34 1 33 0.5 97 97 NW 17 28 29.94 1014 1 2 0.06 1.52
10:15 am 10:15 Cloudy with Light Snow 34 1 33 0.5 97 97 NNW 15 24 29.97 1015 1 2 0.02 0.51
10:35 am 10:35 Cloudy with Snow 33 0.8 33 0.3 97 97 NW 15 24 29.97 1015 0 0 0.03 0.76
10:55 am 10:55 Cloudy with Snow 34 1 33 0.5 97 97 NW 16 26 29.97 1015 1 1 0.07 1.78
11:15 am 11:15 Cloudy with Snow 34 1 33 0.5 97 97 NW 17 28 30.00 1016 0 0 0.04 1.02
11:35 am 11:35 Cloudy with Light Snow 34 1.1 33 0.7 97 97 NW 18 30 30.00 1016 0 0 0.07 1.78
11:55 am 11:55 Windy with Snow Likely 34 1.1 33 0.6 97 97 NW 21 33 30.03 1017 1 2 0.08 2.03
12:15 pm 12:15 Cloudy with Light Snow 34 1.1 33 0.6 97 97 NW 18 30 30.03 1017 1 2 0.01 0.25
12:35 pm 12:35 Windy with Snow Likely 35 1.6 34 1.1 97 97 NW 22 35 30.06 1018 2 3 0.02 0.51
12:55 pm 12:55 Cloudy with Snow 34 1 33 0.5 97 97 NW 23 37 30.06 1018 5 8 0.04 1.02
1:15 pm 13:15 Cloudy with Snow 34 1 33 0.5 97 97 NW 21 33 30.06 1018 5 8 0.02 0.51
1:35 pm 13:35 Cloudy with Snow 34 1 33 0.5 97 97 NW 17 28 30.09 1019 0 0 0.03 0.76
1:55 pm 13:55 Cloudy with Light Snow 34 1 33 0.5 97 97 NW 18 30 30.09 1019 0 0 0.06 1.52
2:15 pm 14:15 Cloudy with Light Snow 35 1.4 34 1 97 97 NW 18 30 30.09 1019 2 3 N/A
2:35 pm 14:35 Cloudy with Light Rain 36 2.1 35 1.6 97 97 NW 20 31 30.09 1019 5 8 0.01 0.25
2:55 pm 14:55 Cloudy with Light Rain 38 3.1 37 2.6 97 97 NW 21 33 30.12 1020 7 11 0.01 0.25
3:15 pm 15:15 Mostly Cloudy 40 4.2 38 3.6 96 96 NNW 25 41 30.09 1019 10 16 N/A
3:35 pm 15:35 Cloudy 40 4.5 37 2.9 89 89 NW 18 30 30.09 1019 10 16 N/A
3:55 pm 15:55 Cloudy 41 5 37 2.8 86 86 NNW 21 33 30.09 1019 10 16 N/A
4:15 pm 16:15 Mostly Cloudy 43 5.9 38 3.2 83 83 NW 23 37 30.09 1019 10 16 N/A
4:35 pm 16:35 Partly Cloudy 43 5.9 38 3.1 82 82 NW 24 39 30.09 1019 10 16 N/A
4:55 pm 16:55 Mostly Cloudy 44 6.7 38 3.5 80 80 NW 26 43 30.09 1019 10 16 N/A
5:15 pm 17:15 Mostly Cloudy 44 6.8 38 3.1 78 78 NW 24 39 30.09 1019 10 16 N/A
5:35 pm 17:35 Partly Cloudy 45 7 38 3.2 77 77 NW 25 41 30.09 1019 10 16 N/A
5:55 pm 17:55 Partly Cloudy 45 7.1 38 3.1 76 76 NW 23 37 30.09 1019 10 16 N/A
6:15 pm 18:15 Sunny 46 7.6 37 3 73 73 NW 24 39 30.06 1018 10 16 N/A
6:35 pm 18:35 Sunny 46 7.6 37 2.8 72 72 NW 20 31 30.06 1018 10 16 N/A
6:55 pm 18:55 Sunny 46 7.6 37 2.5 70 70 NW 20 31 30.06 1018 10 16 N/A
7:15 pm 19:15 Sunny 46 7.6 37 2.5 70 70 NW 17 28 30.06 1018 10 16 N/A
7:35 pm 19:35 Sunny 45 7.3 36 2.3 71 71 WNW 13 20 30.09 1019 10 16 N/A
7:55 pm 19:55 Sunny 44 6.6 36 2.2 74 74 WNW 12 19 30.12 1020 10 16 N/A
8:15 pm 20:15 Clear 42 5.5 36 2.2 80 80 W 9 15 30.12 1020 10 16 N/A
8:35 pm 20:35 Clear 40 4.6 35 1.7 82 82 WNW 9 15 30.12 1020 10 16 N/A
8:55 pm 20:55 Clear 39 4 34 1.2 82 82 W 9 15 30.18 1022 10 16 N/A
9:15 pm 21:15 Clear 39 4 34 1.2 82 82 W 9 15 30.18 1022 10 16 N/A
9:35 pm 21:35 Clear 38 3.2 33 0.5 83 83 W 8 13 30.18 1022 10 16 N/A
9:55 pm 21:55 Clear 38 3.1 33 0.6 84 84 W 12 19 30.21 1023 10 16 N/A
10:15 pm 22:15 Clear 37 3 32 0.1 81 81 W 9 15 30.21 1023 10 16 N/A
10:35 pm 22:35 Clear 36 2.2 32 undefined 86 86 W 9 15 30.18 1022 10 16 N/A
10:55 pm 22:55 Clear 35 1.6 31 -0.4 87 87 W 8 13 30.18 1022 10 16 N/A
11:15 pm 23:15 Clear 36 2.4 32 undefined 84 84 W 9 15 30.18 1022 10 16 N/A
11:35 pm 23:35 Clear 36 2.2 31 -0.5 83 83 W 7 11 30.18 1022 10 16 N/A
11:55 pm 23:55 Clear 36 2.3 31 -0.5 82 82 W 8 13 30.18 1022 10 16 N/A

Powered by AerisWeather